Miscellaneous Local Product
Issued by NWS North Platte, NE

Home | Current Version | Previous Version | Text Only | Print | Product List | Glossary On
Versions: 1 2 3 4 5 6 7 8 9 10 11 12 13 14 15 16 17 18 19 20 21 22 23 24 25 26 27 28 29 30 31 32 33 34 35 36 37 38 39 40 41 42 43 44 45 46 47 48 49 50
000
AXUS43 KLBF 270010
MISLBF


WESTERN AND NORTH CENTRAL NEBRASKA HOURLY WEATHER ROUNDUP
NATIONAL WEATHER SERVICE NORTH PLATTE NE
700 PM CDT SUN APR 26 2015

***STATIONS NOT REPORTING VARIABLES SUCH AS SKY/WEATHER OR
PRESSURE ARE PROVIDED BY THE NEBRASKA DEPARTMENT OF
ROADS...RAWS...AND APRS NETWORKS...AND ARE NOT UNDER
NATIONAL WEATHER SERVICE QUALITY CONTROL***

...OBSERVATIONS IN AND NEAR THE EASTERN PANHANDLE OF NEBRASKA...

CITY           SKY/WX    TMP DP  RH WIND       PRES   REMARKS
PINE RIDGE     CLOUDY    52  40  63 SE15      30.03R
CHADRON        CLOUDY    51  46  83 N5        30.02R
ALLIANCE       CLOUDY    47  40  76 SE14      30.01R
SIDNEY         FOG       41  40  96 E14       30.00R VSB 1/4
$$

...OBSERVATIONS IN NORTH CENTRAL NEBRASKA...

CITY           SKY/WX    TMP DP  RH WIND       PRES   REMARKS
VALENTINE      PTSUNNY   59  36  42 E10       30.02R
THEDFORD       PTSUNNY   58  40  50 E8        30.02S
AINSWORTH      MOSUNNY   60  32  34 E12       30.03R
O`NEILL        SUNNY     62  29  28 E10       30.03R
ORD            MOSUNNY   59  37  44 E12       30.00R
BROKEN BOW     CLOUDY    56  40  55 E10       30.00S
$$

...OBSERVATIONS IN SOUTHWEST NEBRASKA AND FAR NORTHEAST COLORADO...

CITY           SKY/WX    TMP DP  RH WIND       PRES   REMARKS
WRAY           CLOUDY   N/A N/A N/A NE13      29.97R
HOLYOKE        CLOUDY    45  43  93 E13       29.98S FOG
IMPERIAL       CLOUDY    46  43  89 E12       29.98S FOG
OGALLALA       CLOUDY    47  43  88 E6        30.00F FOG
MCCOOK         CLOUDY    53  43  68 E12       29.96F
LEXINGTON      CLOUDY    54  44  69 E12       29.99S
$$

...NORTH PLATTE AREA...

CITY           SKY/WX    TMP DP  RH WIND       PRES   REMARKS
$$

...SOME WEATHER OBSERVATIONS FROM AROUND THE REGION...

CITY           SKY/WX    TMP DP  RH WIND       PRES   REMARKS
DENVER         FOG       42  42 100 E14       29.94R VSB 3/4
LARAMIE        CLOUDY    42  34  73 SE12      29.94R
CHEYENNE       LGT RAIN  39  37  92 E13       29.97R FOG     WCI  31
SCOTTSBLUFF    CLOUDY    46  50 100 E14       30.01R
RAPID CITY     CLOUDY    50  44  80 SE3       30.05R
PIERRE         CLOUDY    63  34  33 E12       30.03S
WINNER         FAIR      63  34  33 SE12      30.03R
SIOUX FALLS    MOSUNNY   64  33  31 N14       30.03S
OMAHA          MOSUNNY   62  35  36 E15       30.00S
GRAND ISLAND   MOSUNNY   58  41  53 E14       30.00S
KANSAS CITY    SUNNY     60  37  42 E14       29.94R
WICHITA        CLOUDY    54  45  71 NE17G24   29.86S
HAYS           CLOUDY    48  37  66 E18       29.93R
LIBERAL        CLOUDY    52  46  82 SE12      29.92R
GOODLAND       CLOUDY    45  44  97 NE16      29.94R
$$



USA.gov is the U.S. government's official web portal to all federal, state and local government web resources and services.